Theta_e
310 312 322 327 329 329 329 328 328 327 326 325 325 325 325 325 324 324 324 324 324 324 325 324 324 324 324 324 323 323 323 322 321 316 314 311 309 307 308 307 306 305 303
311 310 309 314 326 327 329 329 329 328 327 327 326 326 326 326 325 325 325 325 325 325 325 324 324 324 324 324 323 322 322 322 321 313 308 304 305 301 307 303 304 302 300
309 310 309 309 309 322 327 327 328 329 328 327 327 327 327 327 327 326 326 326 326 326 325 325 324 323 323 323 322 322 321 321 320 317 305 303 302 299 301 300 300 298 297
304 306 309 310 309 308 311 323 327 328 328 328 328 328 328 328 328 327 327 327 327 326 325 325 324 323 323 322 322 321 320 321 318 315 306 301 299 298 299 298 296 295 295
300 302 304 308 310 309 309 310 315 324 328 328 328 328 328 328 328 327 327 327 326 326 325 324 324 324 324 324 322 320 321 317 313 309 301 297 297 295 298 296 295 295 295
299 299 301 304 306 308 308 309 311 317 323 326 327 328 327 327 327 328 327 326 325 325 323 324 325 324 324 323 323 322 322 318 311 305 301 298 298 298 298 295 294 293 292
297 298 298 299 301 304 306 306 309 313 318 322 325 326 326 326 327 328 328 327 323 323 323 324 323 322 321 320 317 318 317 315 316 313 307 303 299 300 297 295 295 293 291
295 295 294 295 297 299 301 303 305 308 312 317 320 323 325 326 327 328 326 325 322 323 324 324 321 318 316 317 314 312 309 309 309 309 309 307 304 298 297 296 294 290 287
294 292 293 293 294 297 298 301 303 305 309 314 316 319 322 324 326 327 326 323 323 323 322 319 316 314 312 314 312 306 302 302 303 305 303 298 296 296 296 292 290 289 284
291 290 291 292 293 294 297 298 300 303 305 309 315 317 318 321 324 324 324 323 320 315 310 310 310 313 308 311 310 305 297 293 295 294 294 295 295 292 291 291 290 288 285
288 288 290 291 293 293 295 297 298 300 301 305 309 312 315 318 319 320 321 321 317 309 305 304 305 308 306 307 309 306 304 294 292 293 291 289 289 289 288 287 286 286 284
286 288 289 291 292 293 294 295 296 297 299 301 304 306 309 312 312 314 317 318 316 311 304 304 303 304 303 302 304 301 297 292 290 288 286 285 285 285 284 283 283 282 281
285 287 288 290 291 293 294 294 295 296 298 299 299 299 301 305 304 306 307 309 312 309 308 307 304 301 300 299 298 296 292 289 287 285 284 284 284 283 281 280 280 279 279
282 285 287 288 291 292 293 294 294 295 296 297 297 297 297 299 300 300 302 303 303 304 302 300 297 294 294 294 289 288 288 288 288 286 284 284 282 279 279 279 278 278 277
279 284 286 287 288 291 292 293 294 294 295 296 297 298 296 295 296 300 300 298 299 299 295 291 289 289 289 288 286 286 286 286 286 286 284 281 280 279 278 277 278 277 276
276 281 283 285 287 289 291 292 293 294 295 295 296 297 298 298 297 298 299 299 298 295 292 289 289 288 287 286 285 284 284 285 285 285 282 280 279 278 277 276 276 276 275
273 277 282 283 286 288 290 292 293 294 294 295 295 296 297 298 298 298 296 296 296 293 292 290 288 287 286 285 284 284 283 284 285 283 280 279 279 277 276 275 274 273 271
271 274 281 283 284 285 288 291 292 293 293 294 295 295 296 296 297 296 294 292 290 292 291 289 288 287 285 284 283 283 282 282 282 280 279 279 278 277 275 274 273 273 271
269 274 279 280 280 282 285 289 291 293 293 293 293 294 294 295 295 294 292 292 290 291 289 288 287 285 284 283 282 281 282 280 279 279 279 278 277 276 275 273 272 271 270
270 270 276 276 277 279 283 287 290 292 293 292 291 292 292 292 291 291 291 291 290 290 288 288 286 285 283 282 280 280 278 278 278 278 277 276 276 275 274 273 272 270 269
267 271 271 274 276 278 281 284 288 291 292 292 292 292 292 292 291 291 290 290 290 289 288 288 286 284 282 281 280 278 277 276 277 277 276 275 274 273 273 272 271 269 268
266 267 271 271 272 275 278 281 285 289 291 292 292 291 291 291 291 291 290 290 290 289 288 286 284 283 281 280 280 277 276 276 276 275 274 274 273 272 271 270 269 268 267
267 267 268 269 270 272 275 279 283 287 290 291 292 291 290 290 291 290 290 290 289 287 287 285 283 281 281 281 280 280 279 278 278 276 275 273 272 271 270 269 268 267 266
265 265 266 267 268 269 272 275 280 284 289 291 291 291 291 290 290 290 290 288 286 284 284 283 282 283 281 280 279 277 277 277 277 276 275 274 272 270 269 268 267 266 265
264 264 265 266 267 268 271 273 277 282 287 291 291 291 290 290 290 289 288 284 281 279 279 281 281 280 280 279 278 278 278 277 276 275 274 273 271 270 269 268 266 265 264
264 265 266 266 268 269 271 273 276 281 286 290 291 290 290 289 287 286 283 279 277 277 277 276 276 278 280 279 278 277 276 275 274 274 273 271 270 269 267 266 265 265 264
Wind_Speed
16 20 31 38 38 39 40 40 38 36 35 37 37 39 41 43 43 41 39 36 35 36 36 36 36 34 32 29 31 29 27 25 12 10 16 17 17 14 10 8 7 6 7
29 26 23 27 34 36 37 37 36 38 38 42 40 39 39 39 39 40 39 36 36 36 37 33 35 32 33 31 31 30 29 29 22 12 15 17 13 14 11 9 9 8 9
31 32 33 30 28 34 37 37 36 37 37 37 38 38 39 39 38 39 41 38 37 38 36 36 34 32 32 30 32 30 30 30 26 18 13 15 12 16 14 12 11 12 10
34 34 32 32 35 31 34 36 36 38 38 36 38 40 39 39 41 40 39 38 37 38 38 39 36 37 34 35 34 33 31 28 25 21 15 14 12 15 14 17 15 13 11
33 35 35 33 30 33 33 33 35 37 41 40 39 39 39 39 41 40 39 38 37 37 39 40 41 40 40 38 36 33 32 29 25 23 15 9 12 14 18 18 16 15 12
33 35 39 36 35 32 31 35 34 34 37 37 39 40 37 41 45 43 44 39 40 38 37 41 39 38 37 36 34 34 28 32 28 22 16 15 16 19 20 24 20 11 5
33 34 36 36 36 33 32 33 34 32 34 38 38 38 39 43 45 45 47 39 38 38 38 38 37 36 34 31 27 25 26 27 26 27 26 23 23 26 28 23 20 11 6
27 28 34 35 36 36 34 33 33 32 30 33 34 39 40 44 45 40 44 40 38 34 37 37 38 32 30 31 28 24 22 19 19 19 21 23 20 25 24 20 19 14 10
27 33 37 37 36 36 34 35 32 29 31 29 35 38 39 41 40 40 38 38 35 35 33 37 37 35 34 34 32 30 23 20 18 18 21 22 24 23 18 16 18 16 4
31 35 38 36 34 34 34 35 33 28 31 32 34 33 36 37 37 39 37 36 33 30 27 29 35 37 35 34 33 35 32 29 30 29 28 27 25 22 19 15 16 19 9
33 35 37 34 32 33 34 30 30 28 29 32 33 33 32 31 33 34 36 36 35 30 29 29 29 32 35 34 33 37 39 38 34 33 30 26 21 19 17 15 15 15 13
32 32 32 33 33 32 33 32 31 31 28 30 30 28 28 29 29 32 34 36 35 35 34 34 33 33 36 36 33 36 37 41 38 34 31 28 25 21 18 16 14 13 10
34 32 34 36 33 32 32 30 26 26 26 21 21 19 22 26 25 28 33 32 32 35 37 36 34 34 39 36 35 34 42 41 38 34 31 28 24 22 20 18 14 12 12
34 33 32 32 34 31 29 26 23 21 20 19 17 16 17 22 24 26 29 28 31 32 33 35 39 39 37 34 35 36 38 38 39 35 31 29 26 24 21 19 19 19 16
32 30 30 29 30 32 28 26 24 24 25 22 22 22 18 18 28 32 34 33 34 33 35 34 31 31 31 31 30 33 35 35 34 33 32 33 31 26 22 20 22 20 8
31 28 28 31 30 29 29 31 26 25 27 28 29 24 28 25 26 32 35 34 34 39 34 29 26 28 29 30 29 28 31 34 34 34 34 34 32 29 26 21 20 16 15
29 31 30 29 27 28 28 25 24 25 22 26 27 28 26 29 25 32 34 35 38 43 26 28 29 29 28 30 32 33 29 36 36 37 37 35 32 27 26 22 19 17 14
32 32 29 27 27 29 28 28 26 22 18 18 24 26 27 26 28 32 35 35 33 31 28 32 29 29 29 31 31 30 34 38 37 38 36 35 32 30 26 23 19 17 15
34 30 30 29 28 30 31 28 27 25 22 20 18 23 26 26 28 34 41 34 32 28 23 24 28 31 33 32 32 34 40 40 41 40 37 35 32 29 24 21 18 15 15
31 37 30 32 33 30 28 28 26 24 23 21 20 22 22 23 23 28 34 31 31 30 27 29 30 29 31 33 36 37 36 39 39 39 36 35 31 28 26 23 19 18 14
34 32 33 30 28 29 29 27 27 26 24 25 26 25 30 28 27 30 34 31 29 28 29 29 31 32 35 39 39 40 41 39 40 38 38 34 31 28 24 22 20 16 14
34 34 30 30 31 31 30 30 28 28 26 24 26 25 30 35 28 31 32 33 32 32 33 34 33 36 40 45 46 44 42 42 41 39 36 33 31 28 26 24 21 17 14
32 34 35 33 32 32 33 31 30 28 28 27 25 23 26 31 29 29 31 33 33 35 39 40 39 38 40 43 46 50 51 49 46 43 38 35 31 28 26 24 22 19 17
32 33 34 34 34 32 32 32 32 32 32 27 26 25 25 29 31 29 30 30 31 35 41 42 43 46 46 46 47 44 45 44 42 39 36 33 30 28 24 22 20 17 16
35 35 34 34 33 32 32 31 32 32 31 27 26 25 27 29 29 25 26 29 29 27 33 41 43 44 47 47 47 44 41 39 37 34 30 27 27 25 23 21 20 19 16
33 34 34 34 34 33 32 30 31 32 31 27 26 26 26 24 28 32 33 33 33 34 35 33 40 45 46 45 44 42 40 38 35 31 28 26 26 24 22 20 19 18 16
Wind_Direction
320 287 270 255 247 242 239 240 239 238 234 235 234 235 234 234 232 228 228 230 228 233 231 226 228 221 225 227 230 228 226 220 227 208 211 206 197 204 202 206 206 208 192
335 324 308 284 263 253 247 244 240 238 236 235 233 233 235 235 232 228 226 228 228 232 232 226 222 221 225 225 225 225 223 224 220 188 196 189 194 206 191 197 188 186 174
336 334 325 311 289 268 255 250 243 239 236 235 232 231 234 233 231 230 229 229 228 230 230 223 222 219 220 218 221 223 223 224 222 202 180 185 183 190 169 175 170 171 171
335 330 322 320 311 297 278 263 254 246 240 236 233 234 234 233 231 231 230 233 229 227 225 224 221 222 221 223 226 222 219 222 209 196 175 174 179 178 177 167 167 168 163
338 330 320 314 311 310 302 285 271 258 247 239 237 238 238 238 237 230 230 232 227 223 224 224 228 234 237 236 226 219 223 213 187 180 162 167 166 165 176 171 169 166 163
352 333 322 317 312 307 305 300 288 275 259 246 241 240 240 240 236 240 234 228 226 222 216 222 231 234 234 235 234 237 222 204 189 179 173 170 177 180 172 169 163 163 184
347 336 331 329 318 310 306 301 295 286 275 257 245 241 235 239 246 246 243 231 225 218 220 224 224 225 225 219 215 213 205 205 208 199 191 188 177 182 173 170 177 176 142
333 330 329 328 322 317 311 303 298 288 275 269 256 244 242 244 246 247 245 228 224 225 228 229 222 210 204 195 179 173 176 184 194 196 201 193 190 176 179 181 177 159 143
331 330 330 326 317 320 311 305 300 287 279 265 267 255 244 245 248 246 236 224 229 232 231 228 216 194 185 185 173 162 157 158 171 180 173 167 161 167 176 170 165 161 140
329 324 323 324 318 314 315 304 299 287 278 273 261 261 254 248 244 239 226 218 218 218 215 211 203 191 182 184 178 167 154 155 157 153 152 155 159 164 172 180 179 179 153
324 322 324 326 324 324 318 310 302 290 280 274 264 261 254 250 242 228 222 221 216 203 198 189 188 189 183 184 187 179 179 166 160 157 151 151 155 159 166 170 178 193 175
324 321 321 324 324 322 320 316 310 300 283 274 265 259 257 247 241 228 226 228 220 202 189 187 185 184 182 179 182 181 172 166 161 157 153 153 153 154 159 166 167 165 174
326 324 322 323 322 322 320 318 310 301 280 270 256 249 242 241 233 226 215 215 214 199 193 189 181 180 181 180 183 177 168 167 162 157 158 160 163 159 157 155 150 152 149
323 320 322 319 321 320 316 312 306 294 279 264 247 242 231 223 214 209 204 200 196 191 183 178 173 168 174 173 159 164 169 172 170 166 164 161 159 158 159 160 155 157 149
322 317 319 319 317 316 310 301 299 294 282 274 257 241 218 210 210 207 201 190 187 181 163 151 149 150 149 155 161 168 173 175 171 168 165 161 162 162 163 166 168 168 168
319 316 316 316 314 312 310 307 301 302 295 279 269 261 247 237 224 210 204 199 191 175 159 159 162 164 165 164 165 165 171 174 176 171 168 168 166 167 163 165 168 175 163
311 309 309 313 311 311 310 302 299 300 291 282 270 262 252 245 231 217 206 198 191 176 168 173 174 173 172 171 170 172 173 180 180 176 174 172 170 168 165 162 161 157 148
311 307 303 306 307 307 303 301 292 285 285 279 263 252 246 243 237 214 199 181 173 183 180 177 179 176 175 175 172 172 175 177 178 176 176 173 170 169 166 166 167 161 159
311 307 305 304 304 303 301 295 291 281 274 272 262 247 239 238 234 212 186 183 183 190 187 184 181 176 176 177 173 175 175 174 176 175 175 173 174 169 166 166 164 164 167
309 306 299 305 302 299 297 293 291 283 272 263 246 237 223 211 200 194 193 193 193 194 188 183 181 180 177 174 173 171 169 172 175 175 174 176 172 171 168 167 169 170 175
306 303 301 299 299 296 292 289 286 282 268 260 252 239 220 208 205 203 197 201 198 194 190 187 181 177 178 176 173 171 172 172 175 175 178 176 169 170 171 170 167 168 169
299 297 296 299 297 294 290 289 284 280 270 257 255 240 222 214 215 208 205 202 199 195 190 185 180 180 181 179 176 173 172 172 173 177 178 173 171 171 170 166 164 163 165
299 298 296 295 293 291 290 287 281 278 269 259 253 239 221 217 222 215 208 206 199 189 189 188 183 178 183 183 184 184 180 179 178 179 175 174 171 172 171 167 164 164 170
298 296 293 292 290 288 286 284 283 280 277 261 256 248 234 220 220 215 209 202 196 190 188 187 188 188 184 182 183 184 182 179 175 175 177 173 172 172 169 166 166 168 169
294 291 289 288 286 284 284 281 280 279 276 260 251 245 238 228 221 213 199 195 191 184 179 181 182 184 182 179 181 181 179 174 172 172 173 172 171 170 170 167 168 170 174
292 288 286 285 283 280 278 279 279 277 274 260 247 240 233 218 201 199 194 189 182 177 176 173 173 176 174 176 175 172 171 168 166 168 168 170 169 168 170 171 173 175 178